When you browse on this site, cookies collect data to enhance your experience and personalize the content and advertising you see.
Visit our Privacy Policy to learn more. By continuing to use the site, you agree to this use of cookies and data.

Hourly Weather Al-Jadida

Today, 25 September, Friday

Time Temperature Precipitation Wind Pressure Humidity
00:00 +24°C° 0 mm 3 mps 764 mmHg 75%
01:00 +24°C° 0 mm 2 mps 764 mmHg 78%
02:00 +23°C° 0 mm 2 mps 764 mmHg 81%
03:00 +23°C° 0 mm 1 mps 764 mmHg 82%
04:00 +23°C° 0 mm 1 mps 764 mmHg 84%
05:00 +20°C° 0 mm 0 mps 764 mmHg 85%
06:00 +24°C° 0 mm 1 mps 765 mmHg 78%
07:00 +25°C° 0 mm 1 mps 765 mmHg 70%
08:00 +27°C° 0 mm 2 mps 765 mmHg 62%
09:00 +28°C° 0 mm 3 mps 765 mmHg 58%
10:00 +29°C° 0 mm 5 mps 766 mmHg 55%
11:00 +32°C° 0 mm 6 mps 766 mmHg 52%
12:00 +30°C° 0 mm 7 mps 765 mmHg 54%
13:00 +31°C° 0 mm 8 mps 765 mmHg 57%
14:00 +29°C° 0 mm 9 mps 765 mmHg 59%
15:00 +28°C° 0 mm 9 mps 765 mmHg 62%
16:00 +26°C° 0 mm 9 mps 765 mmHg 66%
17:00 +24°C° 0 mm 8 mps 765 mmHg 69%
18:00 +23°C° 0 mm 8 mps 765 mmHg 71%
19:00 +22°C° 0 mm 8 mps 766 mmHg 74%
20:00 +22°C° 0 mm 8 mps 766 mmHg 77%
21:00 +21°C° 0 mm 7 mps 766 mmHg 77%
22:00 +21°C° 0 mm 7 mps 766 mmHg 78%
23:00 +21°C° 0 mm 6 mps 766 mmHg 79%

Tomorrow, 26 September, Saturday

Time Temperature Precipitation Wind Pressure Humidity
00:00 +21°C° 0 mm 6 mps 766 mmHg 80%
01:00 +20°C° 0 mm 5 mps 765 mmHg 82%
02:00 +20°C° 0 mm 5 mps 765 mmHg 83%
03:00 +20°C° 0 mm 5 mps 765 mmHg 84%
04:00 +20°C° 0 mm 5 mps 765 mmHg 85%
05:00 +20°C° 0 mm 4 mps 765 mmHg 86%
06:00 +21°C° 0 mm 5 mps 765 mmHg 78%
07:00 +23°C° 0 mm 5 mps 765 mmHg 70%
08:00 +24°C° 0 mm 6 mps 765 mmHg 62%
09:00 +24°C° 0 mm 6 mps 765 mmHg 60%
10:00 +26°C° 0 mm 6 mps 765 mmHg 59%
11:00 +26°C° 0 mm 7 mps 765 mmHg 57%
12:00 +26°C° 0 mm 7 mps 764 mmHg 57%
13:00 +26°C° 0 mm 7 mps 764 mmHg 58%
14:00 +24°C° 0 mm 7 mps 763 mmHg 58%
15:00 +23°C° 0 mm 7 mps 763 mmHg 62%
16:00 +22°C° 0 mm 7 mps 763 mmHg 66%
17:00 +21°C° 0 mm 7 mps 763 mmHg 70%
18:00 +21°C° 0 mm 6 mps 763 mmHg 73%
19:00 +20°C° 0 mm 6 mps 763 mmHg 76%
20:00 +20°C° 0 mm 6 mps 764 mmHg 79%
21:00 +20°C° 0 mm 6 mps 763 mmHg 79%
22:00 +20°C° 0 mm 5 mps 763 mmHg 79%
23:00 +19°C° 0 mm 5 mps 763 mmHg 78%

Day after tomorrow, 27 September, Sunday

Time Temperature Precipitation Wind Pressure Humidity
00:00 +19°C° 0 mm 5 mps 762 mmHg 79%
01:00 +19°C° 0 mm 4 mps 762 mmHg 79%
02:00 +19°C° 0 mm 4 mps 761 mmHg 80%
03:00 +18°C° 0 mm 3 mps 761 mmHg 81%
04:00 +18°C° 0 mm 3 mps 761 mmHg 82%
05:00 +18°C° 0 mm 3 mps 761 mmHg 84%
06:00 +20°C° 0 mm 4 mps 761 mmHg 77%
07:00 +21°C° 0 mm 5 mps 761 mmHg 70%
08:00 +23°C° 0 mm 6 mps 761 mmHg 63%
09:00 +24°C° 0 mm 6 mps 761 mmHg 60%
10:00 +26°C° 0 mm 7 mps 761 mmHg 57%
11:00 +27°C° 0 mm 8 mps 761 mmHg 54%
12:00 +27°C° 0 mm 8 mps 761 mmHg 54%
13:00 +27°C° 0 mm 8 mps 760 mmHg 54%
14:00 +27°C° 0 mm 8 mps 760 mmHg 55%
15:00 +26°C° 0 mm 8 mps 760 mmHg 58%
16:00 +24°C° 0 mm 8 mps 760 mmHg 61%
17:00 +23°C° 0 mm 8 mps 760 mmHg 64%
18:00 +22°C° 0 mm 7 mps 760 mmHg 70%
19:00 +22°C° 0 mm 7 mps 760 mmHg 75%
20:00 +21°C° 0 mm 6 mps 761 mmHg 80%
21:00 +21°C° 0 mm 6 mps 761 mmHg 81%
22:00 +21°C° 0 mm 6 mps 760 mmHg 82%
23:00 +21°C° 0 mm 6 mps 760 mmHg 83%

28 September, Monday

Time Temperature Precipitation Wind Pressure Humidity
00:00 +20°C° 0 mm 5 mps 760 mmHg 85%
01:00 +20°C° 0 mm 5 mps 760 mmHg 88%
02:00 +20°C° 0 mm 5 mps 759 mmHg 90%
03:00 +20°C° 0 mm 4 mps 759 mmHg 90%
04:00 +20°C° 0 mm 4 mps 759 mmHg 91%
05:00 +20°C° 0 mm 4 mps 759 mmHg 91%
06:00 +21°C° 0 mm 5 mps 759 mmHg 85%
07:00 +23°C° 0 mm 5 mps 759 mmHg 79%
08:00 +24°C° 0 mm 6 mps 759 mmHg 73%
09:00 +26°C° 0 mm 6 mps 759 mmHg 67%
10:00 +28°C° 0 mm 7 mps 759 mmHg 60%
11:00 +29°C° 0 mm 7 mps 759 mmHg 54%
12:00 +28°C° 0 mm 7 mps 758 mmHg 56%
13:00 +28°C° 0 mm 8 mps 758 mmHg 58%
14:00 +28°C° 0 mm 8 mps 757 mmHg 59%
15:00 +26°C° 0 mm 8 mps 758 mmHg 65%
16:00 +24°C° 0 mm 8 mps 758 mmHg 71%
17:00 +23°C° 0 mm 8 mps 758 mmHg 77%
18:00 +23°C° 0 mm 8 mps 758 mmHg 81%
19:00 +22°C° 0 mm 7 mps 759 mmHg 85%
20:00 +22°C° 0 mm 6 mps 759 mmHg 89%
21:00 +21°C° 0 mm 5 mps 759 mmHg 89%
22:00 +21°C° 0 mm 5 mps 759 mmHg 90%
23:00 +21°C° 0 mm 5 mps 759 mmHg 90%

29 September, Tuesday

Time Temperature Precipitation Wind Pressure Humidity
00:00 +21°C° 0 mm 5 mps 758 mmHg 90%
01:00 +21°C° 0 mm 5 mps 758 mmHg 90%
02:00 +21°C° 0 mm 6 mps 758 mmHg 90%
03:00 +21°C° 0 mm 6 mps 758 mmHg 90%
04:00 +21°C° 0 mm 6 mps 758 mmHg 89%
05:00 +21°C° 0 mm 5 mps 758 mmHg 89%
06:00 +22°C° 0 mm 6 mps 758 mmHg 82%
07:00 +23°C° 0 mm 6 mps 758 mmHg 75%
08:00 +24°C° 0 mm 6 mps 758 mmHg 68%
09:00 +26°C° 0 mm 6 mps 758 mmHg 63%
10:00 +27°C° 0 mm 6 mps 758 mmHg 59%
11:00 +28°C° 0 mm 6 mps 758 mmHg 54%
12:00 +28°C° 0 mm 6 mps 758 mmHg 56%
13:00 +28°C° 0 mm 6 mps 758 mmHg 57%
14:00 +28°C° 0 mm 6 mps 758 mmHg 59%
15:00 +27°C° 0 mm 6 mps 758 mmHg 66%
16:00 +26°C° 0 mm 5 mps 758 mmHg 73%
17:00 +23°C° 0 mm 5 mps 759 mmHg 80%
18:00 +23°C° 0 mm 4 mps 759 mmHg 84%
19:00 +22°C° 0 mm 4 mps 760 mmHg 88%
20:00 +21°C° 0 mm 3 mps 761 mmHg 92%
21:00 +21°C° 0 mm 3 mps 761 mmHg 93%
22:00 +21°C° 0 mm 3 mps 761 mmHg 94%
23:00 +21°C° 0 mm 4 mps 761 mmHg 95%

30 September, Wednesday

Time Temperature Precipitation Wind Pressure Humidity
00:00 +21°C° 0 mm 4 mps 761 mmHg 94%
01:00 +21°C° 0 mm 4 mps 761 mmHg 93%
02:00 +21°C° 0 mm 4 mps 760 mmHg 92%
03:00 +21°C° 0 mm 4 mps 760 mmHg 91%
04:00 +21°C° 0 mm 4 mps 761 mmHg 90%
05:00 +21°C° 0 mm 3 mps 761 mmHg 89%
06:00 +22°C° 0 mm 3 mps 761 mmHg 83%
07:00 +24°C° 0 mm 3 mps 761 mmHg 77%
08:00 +25°C° 0 mm 3 mps 762 mmHg 70%
09:00 +26°C° 0 mm 3 mps 762 mmHg 66%
10:00 +27°C° 0 mm 4 mps 762 mmHg 61%
11:00 +28°C° 0 mm 4 mps 761 mmHg 56%
12:00 +28°C° 0 mm 5 mps 761 mmHg 58%
13:00 +28°C° 0 mm 5 mps 761 mmHg 59%
14:00 +28°C° 0 mm 6 mps 761 mmHg 60%
15:00 +27°C° 0 mm 6 mps 761 mmHg 66%
16:00 +26°C° 0 mm 6 mps 761 mmHg 72%
17:00 +23°C° 0 mm 6 mps 761 mmHg 78%
18:00 +23°C° 0 mm 6 mps 761 mmHg 82%
19:00 +22°C° 0 mm 6 mps 762 mmHg 86%
20:00 +21°C° 0 mm 6 mps 762 mmHg 90%
21:00 +21°C° 0 mm 6 mps 762 mmHg 90%
22:00 +21°C° 0 mm 5 mps 761 mmHg 89%
23:00 +21°C° 0 mm 5 mps 761 mmHg 89%
Show more